Date,TemperatureHighF,TemperatureAvgF,TemperatureLowF,DewpointHighF,DewpointAvgF,DewpointLowF,HumidityHigh,HumidityAvg,HumidityLow,PressureMaxIn,PressureMinIn,WindSpeedMaxMPH,WindSpeedAvgMPH,GustSpeedMaxMPH,PrecipitationSumIn
2013-1-1,58.3,53.2,46.9,50.0,44.3,41.8,93,72,59,30.14,30.03,5,0,12,0.00
2013-1-2,54.3,47.7,42.6,46.2,43.1,39.7,95,84,67,30.36,30.13,7,0,12,0.17
2013-1-3,53.2,50.0,45.5,50.4,47.4,36.8,96,91,69,30.67,30.36,11,3,24,0.14
2013-1-4,61.2,50.9,37.6,48.6,40.8,36.3,98,71,44,30.66,30.51,7,0,12,0.00
2013-1-5,63.0,54.4,45.7,53.2,47.3,39.1,95,78,48,30.52,30.30,10,2,16,0.00
2013-1-6,65.5,54.0,39.2,48.0,43.0,34.1,92,68,47,30.38,30.29,5,0,8,0.00
2013-1-7,69.1,57.0,46.8,55.0,49.7,43.2,95,78,53,30.31,30.19,8,1,14,0.00
2013-1-8,61.5,50.9,38.1,55.5,47.8,36.6,99,89,73,30.36,30.29,7,0,11,0.00
2013-1-9,56.7,48.0,40.6,53.1,45.0,40.4,99,90,72,30.32,30.17,11,2,17,0.02
2013-1-10,61.9,56.4,47.3,48.2,44.4,40.8,95,65,53,30.17,30.10,11,1,17,0.00
2013-1-11,62.6,52.8,41.5,47.5,43.7,39.1,94,72,53,30.19,30.11,7,0,11,0.00
2013-1-12,58.5,48.6,39.6,50.6,43.6,37.5,93,84,59,30.18,29.98,8,1,14,0.00
2013-1-13,54.7,50.8,45.3,48.9,39.8,35.1,93,67,51,29.97,29.80,11,2,17,0.00
2013-1-14,54.3,47.5,37.4,42.3,37.4,33.8,90,69,48,30.04,29.94,8,0,13,0.00
2013-1-15,55.4,49.3,40.3,43.8,38.6,34.5,88,67,53,30.00,29.82,13,2,26,0.05
2013-1-16,57.7,52.1,47.3,46.1,41.9,36.3,78,68,54,29.97,29.66,12,3,21,0.00
2013-1-17,57.0,46.5,42.8,46.5,40.6,35.0,93,80,54,29.86,29.66,7,0,16,0.00
2013-1-18,57.9,54.4,49.8,53.8,48.7,35.9,93,81,56,29.83,29.55,11,2,21,0.00
2013-1-19,61.2,55.7,49.5,56.0,52.3,47.6,99,89,61,29.55,29.11,21,7,30,0.26
2013-1-20,53.6,50.0,44.8,50.3,43.9,36.7,96,80,62,29.64,29.14,14,1,25,0.05
2013-1-21,55.8,51.2,44.4,47.2,40.1,31.1,89,67,48,29.89,29.57,9,1,20,0.00
2013-1-22,53.8,47.8,39.4,46.3,36.9,28.5,91,67,47,29.90,29.56,17,5,28,0.09
2013-1-23,48.9,45.8,41.0,41.9,34.7,29.6,96,66,55,29.84,29.54,17,2,27,0.20
2013-1-24,50.7,46.9,41.0,46.1,40.5,28.4,93,79,47,29.83,29.58,10,1,19,0.27
2013-1-25,54.7,45.9,36.5,42.9,37.0,31.8,96,72,43,29.96,29.82,8,0,11,0.17
2013-1-26,53.4,47.9,41.5,48.9,42.7,35.4,95,83,64,30.15,29.77,10,1,20,0.07
2013-1-27,57.6,51.2,40.5,53.2,48.8,38.6,99,92,76,30.15,29.88,12,2,20,0.00
2013-1-28,56.3,51.7,45.9,52.3,44.6,37.2,99,78,54,30.35,29.86,11,1,17,0.13
2013-1-29,58.3,48.7,36.7,48.8,42.5,33.5,92,80,56,30.42,30.34,8,1,11,0.00
2013-1-30,59.4,49.0,35.1,50.2,44.1,34.3,99,85,49,30.39,30.29,11,3,20,0.01
2013-1-31,66.0,54.4,41.4,53.4,47.2,40.8,99,79,53,30.48,30.37,8,1,12,0.00
2013-2-1,57.6,51.0,45.7,54.7,46.2,25.9,99,86,31,30.38,29.80,12,3,22,0.01
2013-2-2,55.0,49.5,42.8,49.3,40.0,33.1,94,70,57,29.89,29.63,11,2,26,0.06
2013-2-3,48.0,44.0,35.6,33.2,26.6,17.7,76,51,31,30.35,29.88,11,1,26,0.00
2013-2-4,56.2,45.6,34.5,40.5,34.5,26.1,83,66,45,30.41,30.30,11,3,21,0.00
2013-2-5,60.2,52.4,42.0,50.5,44.4,40.3,97,76,53,30.32,29.98,8,1,14,0.00
2013-2-6,53.0,48.8,44.2,47.8,34.7,30.0,98,59,47,29.96,29.77,12,2,29,0.13
2013-2-7,50.2,45.0,39.7,39.5,30.6,20.2,87,59,34,30.10,29.83,9,0,19,0.19
2013-2-8,53.1,44.0,35.4,39.9,33.1,26.3,87,66,50,30.09,29.88,6,0,13,0.00
2013-2-9,48.6,42.5,37.4,38.1,30.6,24.1,86,64,43,30.19,30.02,10,0,21,0.00
2013-2-10,57.9,50.0,38.5,48.7,39.5,33.2,89,68,44,30.15,29.73,13,0,24,0.00
2013-2-11,54.0,48.8,44.4,48.8,34.7,28.9,89,59,46,29.76,29.63,7,0,17,0.08
2013-2-12,52.5,47.7,43.0,40.2,34.7,27.1,80,61,44,29.99,29.68,8,0,19,0.06
2013-2-13,56.1,48.4,39.4,44.9,39.9,33.5,87,73,56,30.16,29.96,8,0,12,0.00
2013-2-14,61.5,51.0,36.9,47.0,43.0,33.8,91,75,55,30.22,30.15,7,0,11,0.00
2013-2-15,61.7,52.6,44.8,52.1,44.9,40.8,99,77,49,30.22,30.09,10,2,15,0.00
2013-2-16,59.9,51.6,42.1,47.4,43.6,39.5,92,75,57,30.22,30.12,7,1,11,0.00
2013-2-17,54.5,49.9,41.4,49.6,45.9,39.1,94,86,77,30.13,29.96,5,0,8,0.00
2013-2-18,60.1,52.5,47.1,55.1,49.3,45.8,98,89,71,30.00,29.90,4,0,8,0.00
2013-2-19,59.9,52.0,44.4,52.1,45.2,39.3,99,79,54,30.02,29.94,4,0,11,0.01
2013-2-20,60.6,51.7,42.3,41.5,37.6,35.1,82,60,44,29.99,29.88,4,0,7,0.00
2013-2-21,62.2,53.3,42.1,54.4,47.2,37.5,96,81,55,29.94,29.72,10,2,15,0.00
2013-2-22,59.7,53.9,47.8,52.1,46.8,42.3,93,78,57,29.72,29.53,9,1,16,0.02
2013-2-23,49.6,42.5,36.5,47.8,39.7,34.9,98,90,79,29.89,29.37,12,2,21,0.13
2013-2-24,48.6,42.1,35.1,34.7,29.3,25.5,88,61,46,29.99,29.88,2,0,11,0.09
2013-2-25,44.8,38.5,33.3,39.6,35.2,31.2,95,88,67,30.13,29.99,5,0,9,0.05
2013-2-26,48.9,40.3,32.5,41.0,33.7,27.7,96,78,59,30.21,30.09,8,0,13,0.00
2013-2-27,52.5,41.5,28.4,39.2,32.9,25.0,90,73,51,30.22,30.10,6,0,11,0.00
2013-2-28,50.0,47.1,40.8,49.2,45.5,36.0,99,94,78,30.09,29.82,9,1,20,1.18
2013-3-1,53.8,46.3,41.0,49.7,44.5,40.6,99,94,78,29.86,29.68,9,0,17,0.15
2013-3-2,57.9,52.0,42.1,46.1,42.2,38.4,91,70,55,30.15,29.86,9,0,18,0.01
2013-3-3,60.8,50.4,37.2,50.1,43.8,35.4,97,80,52,30.13,29.99,4,0,10,0.00
2013-3-4,59.9,54.3,47.7,54.2,51.5,45.7,97,91,80,30.01,29.73,10,1,16,0.01
2013-3-5,67.6,57.4,52.3,57.6,54.0,51.8,99,89,65,29.69,29.35,4,0,8,0.06
2013-3-6,62.2,55.8,52.0,56.8,54.0,51.2,99,94,77,29.61,29.30,18,4,31,0.02
2013-3-7,68.0,59.0,53.2,56.6,53.5,49.0,99,83,58,29.76,29.60,1,0,8,0.00
2013-3-8,68.0,61.1,53.6,56.4,50.4,45.9,99,69,45,29.81,29.64,1,0,10,0.00
2013-3-9,69.1,59.1,52.3,53.8,49.6,43.1,99,73,40,29.80,29.72,2,0,8,0.00
2013-3-10,62.1,56.1,51.3,54.0,48.6,27.4,99,78,47,29.75,29.66,2,0,6,0.00
2013-3-11,61.2,55.3,47.8,48.5,43.4,38.6,86,65,45,29.74,29.66,0,0,5,0.00
2013-3-12,61.5,55.7,48.2,43.3,40.7,35.8,83,58,42,29.69,29.57,0,0,4,0.00
2013-3-13,56.7,44.5,39.2,51.5,41.8,37.3,97,91,56,29.65,29.38,1,0,11,0.66
2013-3-14,51.1,45.7,38.3,39.2,34.0,27.8,96,65,44,29.86,29.65,0,0,11,0.05
2013-3-15,54.9,48.1,37.8,34.1,30.4,25.8,70,51,36,30.13,29.87,0,0,3,0.00
2013-3-16,57.2,44.8,34.0,42.4,34.9,26.3,85,69,46,30.13,29.90,0,0,3,0.00
2013-3-17,63.3,54.3,41.5,54.2,47.6,38.5,99,79,50,29.89,29.52,0,0,1,0.12
2013-3-18,60.3,56.0,45.1,53.5,42.4,31.4,99,63,40,29.82,29.48,1,0,4,0.14
2013-3-19,64.9,54.7,43.0,55.3,49.3,38.4,99,83,61,29.81,29.61,0,0,1,0.00
2013-3-20,58.8,53.5,46.4,53.7,48.0,42.4,99,82,63,30.14,29.58,0,0,2,0.00
2013-3-21,62.1,53.8,43.0,54.1,49.8,40.4,97,87,73,30.17,30.00,0,0,2,0.00
2013-3-22,67.5,56.7,42.4,57.4,50.1,42.0,99,81,55,29.99,29.74,0,0,2,0.01
2013-3-23,63.5,57.0,52.5,54.7,50.8,47.3,99,81,62,29.78,29.62,0,0,1,0.00
2013-3-24,65.3,57.1,50.4,53.8,48.8,43.6,99,76,47,29.67,29.52,0,0,2,0.00
2013-3-25,64.2,58.7,49.3,50.7,44.0,39.6,92,59,43,29.81,29.66,1,0,4,0.00
2013-3-26,68.2,61.1,54.7,54.6,52.0,47.3,99,73,53,29.71,29.59,1,0,2,0.07
2013-3-27,66.2,59.9,52.9,56.8,53.5,49.9,99,81,57,29.74,29.59,1,0,4,0.00
2013-3-28,66.2,60.4,53.2,58.7,54.8,51.1,99,82,64,29.89,29.69,1,0,5,0.00
2013-3-29,66.7,60.3,52.0,56.1,53.6,51.0,99,80,60,29.89,29.74,1,0,7,0.00
2013-3-30,67.5,64.3,56.3,55.1,44.2,38.1,94,49,36,29.85,29.66,1,0,4,0.01
2013-3-31,67.5,62.3,54.7,51.9,43.1,38.2,89,51,35,29.85,29.69,1,0,2,0.00
2013-4-1,64.6,59.6,50.7,56.7,51.4,42.9,99,76,53,29.68,29.45,1,0,4,0.13
2013-4-2,63.1,56.8,44.8,51.1,43.7,38.0,95,65,40,29.83,29.68,0,0,4,0.00
2013-4-3,68.0,60.0,45.1,50.1,43.5,39.1,91,57,37,29.84,29.63,1,0,6,0.00
2013-4-4,64.8,57.7,52.7,53.6,48.7,44.4,94,73,50,29.65,29.51,0,0,5,0.00
2013-4-5,63.5,55.3,45.3,54.7,49.8,44.2,99,83,54,29.75,29.62,0,0,6,0.21
2013-4-6,52.3,47.7,43.7,47.6,40.4,34.1,94,77,54,29.99,29.75,0,0,7,0.19
2013-4-7,62.1,52.9,43.0,44.9,41.4,36.5,87,67,43,30.19,29.98,5,1,13,0.07
2013-4-8,64.2,55.8,46.0,51.4,47.6,43.3,98,75,53,30.06,29.93,13,5,21,0.00
2013-4-9,69.1,59.1,50.2,52.8,49.6,39.7,98,73,35,30.06,29.96,14,5,24,0.00
2013-4-10,75.4,60.8,49.3,63.0,52.9,47.8,99,79,43,30.16,30.05,11,3,19,0.00
2013-4-11,68.7,60.6,54.3,59.5,56.3,52.7,98,86,63,30.17,29.96,11,7,21,0.00
2013-4-12,75.7,64.6,50.0,60.6,51.4,46.1,99,66,38,30.20,30.00,10,4,14,0.00
2013-4-13,78.4,62.6,48.6,55.9,49.2,45.1,90,65,37,30.36,30.20,8,2,12,0.00
2013-4-14,76.1,61.1,44.4,49.4,44.8,39.5,86,60,34,30.39,30.32,6,2,13,0.00
2013-4-15,80.2,67.3,51.4,46.9,43.8,40.5,67,45,26,30.36,30.25,6,2,11,0.00
2013-4-16,79.0,64.3,49.5,58.7,50.9,43.8,86,63,38,30.31,30.25,8,2,14,0.00
2013-4-17,79.7,66.4,52.0,57.1,52.3,44.7,93,64,37,30.32,30.25,8,2,13,0.00
2013-4-18,80.8,67.5,52.2,54.8,49.6,43.0,91,57,34,30.29,30.21,5,2,11,0.00
2013-4-19,68.7,59.2,50.9,58.2,49.2,42.7,98,70,57,30.33,30.21,11,4,20,0.00
2013-4-20,63.0,56.7,48.7,46.2,43.3,37.8,78,61,50,30.33,30.21,14,4,21,0.00
2013-4-21,65.8,55.1,46.6,53.2,47.2,42.8,93,76,56,30.26,30.15,11,2,18,0.00
2013-4-22,64.8,55.7,46.2,54.3,46.5,42.0,96,73,46,30.22,30.13,11,2,20,0.00
2013-4-23,65.7,57.7,42.3,50.4,43.7,39.1,91,62,42,30.32,30.21,11,4,23,0.00
2013-4-24,64.0,57.8,50.0,55.2,52.8,47.2,99,84,65,30.33,30.19,14,6,24,0.04
2013-4-25,60.1,57.2,54.9,58.0,56.3,54.3,99,97,86,30.19,30.02,11,5,21,0.37
2013-4-26,67.6,58.8,55.8,64.9,58.2,55.5,99,98,86,30.08,29.90,10,2,18,0.24
2013-4-27,59.7,54.1,49.3,59.1,53.4,47.6,99,98,91,29.93,29.77,9,3,15,0.47
2013-4-28,61.0,54.3,49.1,60.2,44.7,31.5,99,73,34,29.91,29.78,11,3,21,0.40
2013-4-29,58.6,54.7,52.3,54.6,40.2,27.2,99,62,31,29.95,29.81,9,4,15,0.39
2013-4-30,68.7,57.9,45.9,56.5,51.9,45.6,99,82,56,30.12,29.93,9,3,16,0.00
2013-5-1,69.8,59.6,46.8,58.0,51.3,46.0,99,76,56,30.17,30.10,8,1,13,0.00
2013-5-2,70.2,60.5,45.1,55.5,51.1,43.8,98,73,52,30.16,30.09,7,1,14,0.00
2013-5-3,66.4,59.5,46.4,54.3,48.5,44.5,95,69,48,30.20,30.11,10,3,17,0.00
2013-5-4,69.8,60.5,46.4,52.8,48.4,44.3,94,67,43,30.27,30.18,8,2,14,0.00
2013-5-5,69.3,62.9,51.4,55.8,49.8,44.5,93,64,44,30.26,30.19,14,6,23,0.00
2013-5-6,72.5,63.2,51.3,59.3,55.6,50.3,99,78,47,30.26,30.17,9,4,15,0.00
2013-5-7,81.9,64.9,56.1,65.4,56.5,49.8,99,79,34,30.21,30.09,8,3,15,0.00
2013-5-8,85.1,74.2,58.6,60.9,56.3,50.2,77,55,40,30.14,30.03,8,2,15,0.04
2013-5-9,83.5,71.4,59.0,63.4,57.7,50.3,90,65,37,30.13,30.03,9,2,21,0.00
2013-5-10,70.3,64.7,56.7,60.4,53.8,49.6,98,70,49,30.23,30.06,9,4,20,0.00
2013-5-11,71.6,63.3,54.0,56.9,54.6,51.7,94,74,56,30.27,30.18,6,2,11,0.00
2013-5-12,69.4,65.2,51.3,58.0,55.4,49.0,94,71,63,30.30,30.22,13,5,21,0.00
2013-5-13,71.6,63.2,48.6,57.6,53.8,45.9,93,73,51,30.31,30.17,9,3,15,0.00
2013-5-14,77.4,64.1,53.2,59.8,55.9,51.0,95,76,53,30.20,29.86,9,2,17,0.00
2013-5-15,69.3,63.6,55.2,60.7,57.9,52.8,96,82,70,29.85,29.59,9,2,15,0.00
2013-5-16,63.3,58.8,53.1,58.9,51.8,39.8,99,80,44,29.74,29.55,8,2,14,0.46
2013-5-17,66.2,60.1,48.7,55.1,49.7,43.8,91,70,48,29.79,29.67,16,6,30,0.00
2013-5-18,63.7,59.9,57.2,58.2,50.6,40.5,99,74,43,30.00,29.75,15,8,29,0.12
2013-5-19,66.6,61.5,52.7,49.9,46.3,41.5,81,58,45,30.18,29.99,15,6,25,0.00
2013-5-20,63.9,57.8,49.5,54.3,50.0,44.6,91,76,58,30.19,30.15,5,1,11,0.02
2013-5-21,58.6,54.9,48.4,55.7,52.3,46.2,98,91,83,30.18,29.97,10,2,20,0.12
2013-5-22,71.8,63.7,52.0,56.9,52.0,48.1,96,68,44,30.05,29.96,11,3,17,0.12
2013-5-23,67.8,62.6,52.2,55.8,52.2,48.9,91,70,56,30.07,30.00,12,5,24,0.00
2013-5-24,69.8,61.0,50.5,51.8,47.0,42.3,92,61,40,30.16,30.03,8,3,15,0.00
2013-5-25,69.3,61.4,50.2,51.2,43.5,35.8,93,55,31,30.21,30.09,9,3,17,0.00
2013-5-26,70.0,61.5,48.7,51.1,48.7,44.4,87,64,49,30.24,30.10,9,3,17,0.00
2013-5-27,66.0,59.9,50.0,58.9,54.7,47.1,95,83,74,30.15,29.91,9,2,13,0.00
2013-5-28,72.9,65.4,54.7,60.9,54.9,47.8,99,72,43,29.96,29.83,14,6,23,0.00
2013-5-29,67.3,61.5,53.1,56.6,46.3,38.9,98,61,38,30.01,29.91,10,3,17,0.01
2013-5-30,70.0,61.8,48.9,49.4,44.3,36.4,90,55,32,30.07,29.96,8,3,16,0.01
2013-5-31,72.7,64.6,56.1,53.6,48.5,46.3,77,57,42,30.09,29.96,8,3,17,0.00
2013-6-1,78.8,68.4,58.6,54.7,47.5,41.3,84,50,28,30.17,30.05,12,4,18,0.00
2013-6-2,76.8,69.7,54.1,53.2,47.8,44.5,75,48,33,30.19,30.10,13,5,20,0.00
2013-6-3,75.6,68.0,52.9,55.2,49.2,45.5,85,53,38,30.19,30.12,11,4,18,0.00
2013-6-4,76.8,69.0,53.4,59.7,53.2,50.5,94,60,42,30.17,30.07,10,3,15,0.00
2013-6-5,77.7,69.7,55.2,54.6,51.9,48.2,86,55,40,30.12,30.04,10,2,15,0.00
2013-6-6,84.0,72.5,55.6,62.8,55.7,51.8,99,59,36,30.20,30.09,9,2,15,0.00
2013-6-7,78.3,70.6,57.0,61.5,57.6,49.5,90,65,45,30.20,30.09,10,3,16,0.00
2013-6-8,74.1,67.9,61.5,62.7,55.5,43.4,99,68,40,30.15,30.01,14,6,23,0.02
2013-6-9,72.0,66.7,58.5,59.8,55.5,49.9,95,68,46,30.07,29.94,18,8,30,0.00
2013-6-10,77.9,70.8,58.1,61.0,57.7,54.4,91,64,51,30.17,30.01,11,3,17,0.00
2013-6-11,78.1,70.6,57.6,65.5,61.6,56.7,99,75,52,30.19,29.81,13,5,21,0.00
2013-6-12,84.4,75.7,59.7,64.8,58.2,45.4,94,57,36,30.23,29.81,11,3,18,0.00
2013-6-13,90.0,78.2,61.0,59.9,55.6,50.1,74,48,34,30.24,30.13,11,3,16,0.00
2013-6-14,89.6,77.6,63.1,64.5,60.9,55.2,92,59,37,30.20,30.10,11,3,16,0.00
2013-6-15,93.9,78.4,62.4,60.5,54.9,50.6,76,48,26,30.16,30.09,6,2,11,0.00
2013-6-16,93.6,83.2,64.6,59.1,52.8,43.4,62,37,20,30.15,29.99,9,2,15,0.00
2013-6-17,98.1,83.3,65.7,70.5,65.2,56.3,92,57,33,30.02,29.86,11,3,18,0.00
2013-6-18,78.1,72.0,66.9,70.3,67.2,64.1,98,85,70,29.97,29.88,11,4,17,0.00
2013-6-19,79.0,72.1,62.1,65.8,59.0,52.5,96,66,41,30.12,29.96,14,5,21,0.00
2013-6-20,81.9,73.2,57.4,63.3,60.8,54.7,91,66,50,30.20,30.11,10,3,16,0.00
2013-6-21,83.1,74.0,58.8,64.8,60.2,56.3,94,65,43,30.25,30.14,13,2,20,0.00
2013-6-22,81.5,69.9,62.8,69.8,64.0,59.4,96,83,54,30.27,30.21,10,2,18,0.22
2013-6-23,80.6,73.3,60.1,68.7,61.5,56.8,99,69,50,30.28,30.21,11,4,16,0.00
2013-6-24,73.8,68.1,63.1,64.7,59.3,57.2,93,74,62,30.35,30.28,9,2,15,0.00
2013-6-25,76.3,69.3,62.4,60.8,58.9,57.4,86,70,57,30.35,30.28,7,2,10,0.00
2013-6-26,77.0,68.8,57.6,61.0,58.9,55.1,93,72,54,30.35,30.31,8,2,14,0.00
2013-6-27,79.3,70.4,55.4,60.4,56.0,51.8,93,63,42,30.35,30.25,9,2,18,0.00
2013-6-28,76.6,69.9,58.6,59.9,57.7,54.8,89,66,52,30.36,30.28,11,3,19,0.00
2013-6-29,80.1,72.4,59.0,62.1,58.5,55.0,89,63,46,30.38,30.29,13,4,21,0.00
2013-6-30,84.2,74.9,60.4,65.3,61.1,56.1,91,64,45,30.33,30.19,8,2,14,0.00
2013-7-1,68.9,68.1,67.5,62.8,61.9,60.6,85,81,75,30.16,30.15,2,1,4,0.00
2013-7-2,85.8,75.2,62.2,68.1,64.6,60.1,93,71,48,30.17,30.09,11,2,16,0.00
2013-7-3,85.8,76.2,66.6,70.2,67.7,63.8,94,76,57,30.22,30.11,8,2,15,0.00
2013-7-4,81.3,75.9,65.8,68.6,66.7,63.8,95,74,61,30.29,30.20,10,3,17,0.00
2013-7-5,82.4,76.0,63.0,68.1,62.8,57.6,99,66,48,30.33,30.25,10,4,21,0.00
2013-7-6,88.2,78.5,60.8,67.4,62.6,57.9,92,61,40,30.32,30.25,11,3,17,0.00
2013-7-7,92.8,80.9,63.5,67.2,62.5,58.8,90,58,34,30.30,30.20,6,1,14,0.00
2013-7-8,90.7,80.7,65.7,70.5,64.4,59.4,99,61,38,30.25,30.18,8,3,16,0.00
2013-7-9,90.7,80.1,64.2,69.7,66.0,61.7,93,64,41,30.24,30.11,10,3,17,0.00
2013-7-10,88.7,79.9,67.1,70.5,67.6,64.6,95,68,49,30.16,30.00,11,4,15,0.00
2013-7-11,88.5,80.4,70.2,73.2,69.4,66.1,99,72,50,30.07,29.98,7,2,11,0.01
2013-7-12,94.1,82.8,66.2,71.8,66.7,62.3,96,61,40,30.12,30.05,9,2,14,0.00
2013-7-13,83.1,77.2,70.0,69.6,64.7,59.9,87,67,50,30.18,30.10,5,1,9,0.00
2013-7-14,90.3,81.4,65.1,68.4,63.1,59.9,88,56,38,30.22,30.14,10,3,16,0.00
2013-7-15,91.6,82.6,68.0,70.1,67.2,64.0,92,62,43,30.23,30.17,14,2,20,0.00
2013-7-16,94.5,83.8,66.9,70.4,66.1,62.6,91,58,39,30.24,30.15,9,2,14,0.00
2013-7-17,93.6,82.0,67.3,72.0,66.1,62.1,89,61,39,30.24,30.15,9,2,15,0.01
2013-7-18,90.1,77.9,67.8,73.2,68.4,64.1,94,75,47,30.22,30.14,8,2,14,0.00
2013-7-19,93.2,82.8,67.8,70.2,66.5,60.8,94,61,40,30.19,30.05,8,2,14,0.00
2013-7-20,94.1,82.5,68.2,73.2,66.9,60.0,90,62,37,30.11,30.00,11,3,16,0.00
2013-7-21,91.2,81.7,68.4,74.8,69.6,62.9,99,69,46,30.16,30.06,10,2,17,0.00
2013-7-22,91.6,79.6,70.3,74.1,70.7,65.8,98,77,46,30.16,30.06,11,2,20,0.01
2013-7-23,90.0,81.3,69.1,72.8,70.0,65.4,92,70,52,30.11,30.04,11,3,17,0.00
2013-7-24,89.4,81.7,68.2,74.7,70.7,65.4,99,71,50,30.14,30.10,10,3,17,0.00
2013-7-25,78.3,72.4,69.8,75.4,70.1,66.7,99,93,68,30.16,30.09,2,1,5,0.00
2013-7-26,97.3,87.1,68.9,69.7,66.2,62.5,88,53,34,30.10,29.95,11,3,18,0.00
2013-7-27,99.3,89.7,72.7,78.1,74.3,68.6,99,62,42,30.01,29.88,9,4,16,0.00
2013-7-28,92.5,86.0,72.5,78.0,70.1,62.9,99,62,40,30.11,29.93,12,6,20,0.00
2013-7-29,93.2,84.3,73.6,74.1,66.6,57.7,94,59,34,30.32,30.08,10,3,16,0.00
2013-7-30,88.3,80.2,68.2,71.1,67.5,64.3,94,67,48,30.36,30.25,10,3,18,0.00
2013-7-31,92.7,82.4,66.7,71.8,67.5,61.2,95,63,40,30.28,30.11,8,2,12,0.00
2013-8-1,92.3,79.2,64.9,69.7,65.5,59.0,95,66,34,30.16,30.08,8,2,15,0.00
2013-8-2,96.1,87.3,67.1,69.9,64.0,58.9,76,48,32,30.17,30.09,11,2,15,0.00
2013-8-3,96.8,85.9,69.1,71.7,66.2,59.1,81,54,39,30.20,30.12,8,2,13,0.00
2013-8-4,96.3,85.0,68.4,69.4,66.2,62.0,85,56,34,30.23,30.15,9,2,17,0.00
2013-8-5,96.3,84.2,68.2,76.1,69.0,60.7,90,62,35,30.18,30.06,9,3,15,0.00
2013-8-6,98.6,86.9,71.4,77.6,71.5,63.8,99,63,33,30.10,29.93,8,3,16,0.00
2013-8-7,89.6,82.2,73.9,79.4,77.2,73.7,99,86,66,29.97,29.88,12,4,17,0.00
2013-8-8,84.7,78.0,70.3,78.4,69.9,60.9,99,78,55,30.25,29.91,11,4,21,0.00
2013-8-9,89.6,78.6,63.7,66.3,61.8,57.6,84,59,36,30.28,30.20,11,2,17,0.00
2013-8-10,86.7,76.3,65.8,68.8,64.5,60.4,86,68,46,30.26,30.17,12,2,16,0.00
2013-8-11,89.1,79.0,65.5,71.5,67.7,63.3,95,70,45,30.22,30.12,12,3,21,0.00
2013-8-12,93.4,79.4,66.0,74.5,68.7,61.5,96,73,36,30.16,30.05,9,2,15,0.00
2013-8-13,93.2,81.6,68.0,72.1,65.5,56.3,92,62,33,30.15,30.08,8,2,12,0.00
2013-8-14,87.1,80.3,69.4,70.6,67.2,65.3,94,66,51,30.18,30.12,8,2,15,0.00
2013-8-15,89.1,80.5,67.3,72.2,68.0,62.8,87,67,49,30.20,30.13,8,2,15,0.00
2013-8-16,92.8,80.7,66.4,74.7,69.5,63.2,92,70,44,30.20,30.10,8,2,14,0.00
2013-8-17,88.2,78.8,69.6,75.7,71.1,66.9,98,79,54,30.18,30.12,7,2,13,0.07
2013-8-18,89.1,78.6,68.0,77.1,72.5,67.7,99,83,56,30.19,30.11,8,2,14,0.01
2013-8-19,91.4,81.0,67.6,76.3,72.0,67.4,99,76,50,30.22,30.14,11,2,17,0.00
2013-8-20,84.0,78.2,70.9,72.9,64.6,60.0,96,64,51,30.27,30.19,9,4,16,0.00
2013-8-21,87.3,77.7,62.2,67.9,64.1,54.9,78,64,49,30.25,30.14,9,2,14,0.00
2013-8-22,86.4,75.1,63.7,67.6,65.1,61.2,93,73,47,30.18,30.05,10,2,15,0.00
2013-8-23,88.9,79.2,66.6,72.7,68.7,63.9,92,72,48,30.10,30.04,10,2,14,0.00
2013-8-24,90.0,78.3,65.1,72.6,68.4,64.0,98,74,47,30.09,30.02,8,2,11,0.00
2013-8-25,77.5,75.0,71.4,72.3,67.3,65.1,94,77,69,30.09,29.95,6,2,10,0.00
2013-8-26,73.6,69.2,66.7,72.1,68.6,65.6,99,98,85,30.01,29.90,9,1,15,0.66
2013-8-27,79.3,69.8,63.9,72.8,66.7,56.5,99,91,63,30.10,29.97,8,1,14,0.84
2013-8-28,79.0,72.5,66.6,71.0,66.9,64.0,99,84,66,30.16,30.08,8,2,15,0.02
2013-8-29,79.9,74.0,65.5,67.6,64.9,60.4,99,75,58,30.17,29.78,11,3,18,0.00
2013-8-30,76.6,72.4,66.4,68.4,64.8,60.7,98,78,65,30.22,29.73,8,3,18,0.00
2013-8-31,80.6,75.2,66.2,64.5,61.9,60.1,90,64,51,30.25,29.87,11,4,22,0.00
2013-9-1,81.0,75.0,62.8,65.9,62.6,57.6,86,66,52,30.29,29.84,13,4,26,0.00
2013-9-2,84.6,75.7,62.4,67.3,63.1,58.4,87,66,49,30.32,30.25,9,2,14,0.00
2013-9-3,83.8,75.1,63.0,69.7,65.1,60.9,96,73,50,30.32,30.24,8,2,16,0.00
2013-9-4,84.7,74.7,62.2,70.4,67.0,60.6,98,78,52,30.30,30.16,10,2,15,0.00
2013-9-5,85.5,75.3,62.8,71.3,67.0,61.0,98,77,50,30.19,30.01,11,1,17,0.00
2013-9-6,85.5,76.6,64.4,71.3,66.2,62.3,99,73,48,30.07,29.98,9,3,14,0.00
2013-9-7,81.7,74.3,63.3,72.0,68.2,62.8,99,82,64,30.20,30.08,12,3,17,0.00
2013-9-8,81.1,74.7,70.2,75.3,71.4,68.8,99,90,67,30.29,30.15,9,2,14,0.05
2013-9-9,82.4,72.3,66.2,72.2,69.7,65.9,99,92,66,30.32,30.26,7,1,11,0.09
2013-9-10,82.2,73.1,64.6,73.7,67.9,60.3,99,85,52,30.27,30.13,11,2,17,0.01
2013-9-11,72.9,67.0,61.5,71.0,65.1,61.3,99,94,79,30.23,30.15,9,2,17,0.27
2013-9-12,75.9,68.1,61.2,67.8,63.1,60.9,99,85,67,30.27,30.20,5,1,10,0.01
2013-9-13,80.1,71.4,59.7,69.5,64.7,59.5,99,81,59,30.32,30.26,8,1,14,0.00
2013-9-14,82.0,72.5,60.1,69.9,65.4,59.8,99,80,56,30.33,30.12,8,2,16,0.00
2013-9-15,81.9,73.8,66.0,73.6,69.8,65.8,99,88,72,30.15,30.01,8,2,15,0.00
2013-9-16,80.1,73.1,62.6,72.9,69.3,62.3,99,88,71,30.11,29.93,10,3,16,0.00
2013-9-17,77.2,71.1,66.2,72.0,67.6,64.9,99,89,76,30.10,29.94,7,2,11,0.00
2013-9-18,79.5,71.9,59.5,69.3,63.8,58.7,99,77,53,30.10,29.98,11,3,19,0.00
2013-9-19,78.3,72.1,61.7,69.4,65.2,57.0,98,80,67,30.11,29.98,10,2,15,0.00
2013-9-20,78.1,70.1,61.0,69.8,66.1,60.0,98,88,72,30.25,30.11,8,2,13,0.00
2013-9-21,81.3,70.5,60.6,68.8,65.2,59.5,99,85,61,30.33,30.25,10,2,15,0.46
2013-9-22,78.6,71.1,57.4,73.0,63.3,51.1,99,77,60,30.36,30.28,6,1,10,0.01
2013-9-23,79.9,71.2,58.5,68.8,64.3,58.2,99,80,63,30.32,30.17,9,2,12,0.00
2013-9-24,81.9,71.3,58.3,69.1,63.9,57.8,99,79,52,30.20,30.09,8,2,12,0.00
2013-9-25,82.2,72.5,59.2,68.0,64.6,58.7,99,78,57,30.12,30.03,8,2,14,0.00
2013-9-26,83.7,73.9,60.3,73.0,68.1,60.0,99,83,68,30.14,30.04,8,2,13,0.00
2013-9-27,88.9,75.0,59.5,74.0,67.0,58.5,99,80,40,30.10,29.95,8,1,14,0.00
2013-9-28,78.3,73.6,68.7,75.9,71.9,68.5,99,95,74,29.97,29.85,11,4,18,0.00
2013-9-29,78.6,73.1,69.4,71.4,66.8,62.8,99,82,62,29.89,29.81,11,4,20,0.00
2013-9-30,81.1,74.5,64.8,68.6,66.2,62.8,98,76,59,29.91,29.81,12,4,21,0.00
2013-10-1,83.3,73.8,65.7,75.1,70.6,65.2,99,90,69,29.95,29.87,10,4,16,0.00
2013-10-2,85.5,80.9,68.7,75.1,70.4,21.2,99,72,13,30.00,29.92,10,3,14,0.00
2013-10-3,82.0,75.5,68.9,75.6,73.3,68.6,99,93,78,30.07,29.97,7,2,13,0.00
2013-10-4,83.7,76.0,70.7,79.7,74.6,70.4,99,96,77,30.11,30.01,11,3,15,0.00
2013-10-5,77.0,72.0,64.9,70.9,63.0,56.7,99,74,58,30.30,30.15,10,3,16,0.00
2013-10-6,75.6,67.2,58.5,60.9,56.7,53.3,89,71,46,30.30,30.23,10,2,16,0.14
2013-10-7,75.4,66.8,59.0,60.7,57.0,54.4,89,72,51,30.31,30.23,6,1,12,0.01
2013-10-8,77.9,69.9,54.5,61.2,56.6,51.3,89,64,46,30.32,30.25,8,2,12,0.00
2013-10-9,72.5,66.2,57.6,62.0,57.3,53.6,89,74,62,30.31,30.18,6,1,10,0.00
2013-10-10,73.6,63.1,54.5,61.6,57.0,51.0,89,81,61,30.22,29.98,11,2,15,0.00
2013-10-11,66.6,61.3,56.1,59.3,56.2,52.9,89,83,70,30.08,30.00,6,2,11,0.05
2013-10-12,76.5,67.4,58.6,62.5,59.1,55.4,89,76,53,30.20,30.08,7,2,14,0.00
2013-10-13,77.0,69.0,57.7,67.7,60.4,54.5,89,75,56,30.22,30.14,9,2,15,0.00
2013-10-14,77.4,68.7,56.5,66.7,60.5,53.3,89,76,56,30.24,30.17,9,3,15,0.00
2013-10-15,76.1,69.9,63.1,66.4,61.8,59.3,89,76,60,30.25,30.09,12,4,19,0.00
2013-10-16,85.5,75.9,64.0,66.9,60.7,56.3,89,63,38,30.20,30.09,8,2,14,0.00
2013-10-17,79.9,71.3,60.4,66.6,61.8,57.1,89,73,55,30.25,30.15,8,2,13,0.00
2013-10-18,81.7,70.9,60.6,69.1,61.6,57.4,89,75,48,30.17,30.03,7,1,11,0.00
2013-10-19,83.3,72.3,61.9,67.3,64.0,58.6,89,76,53,30.17,30.08,8,2,14,0.00
2013-10-20,78.3,69.8,62.1,67.7,63.6,58.8,89,81,66,30.23,30.14,8,2,14,0.00
2013-10-21,82.8,71.0,59.7,70.7,63.9,56.5,89,79,56,30.23,30.09,8,1,11,0.00
2013-10-22,78.1,69.3,61.5,71.8,63.9,55.1,89,83,57,30.11,29.96,11,2,17,0.00
2013-10-23,74.7,70.2,66.4,68.0,63.2,57.9,89,79,57,30.15,30.00,10,4,17,0.00
2013-10-24,79.0,66.0,58.8,67.4,60.1,55.6,89,82,48,30.18,30.10,8,1,14,0.00
2013-10-25,81.9,71.5,59.9,68.8,63.0,56.7,89,76,57,30.15,30.06,6,1,11,0.00
2013-10-26,84.4,74.2,66.9,72.2,67.3,61.4,89,80,58,30.20,30.07,7,2,12,0.00
2013-10-27,85.5,72.2,60.4,72.5,62.9,54.1,89,74,46,30.31,30.21,9,2,14,0.00
2013-10-28,77.4,69.9,63.0,68.4,56.5,21.3,89,67,17,30.29,30.06,10,4,15,0.00
2013-10-29,68.4,62.9,58.1,63.4,59.0,54.0,89,87,77,30.15,30.00,11,4,24,0.17
2013-10-30,62.2,59.5,53.4,54.2,45.0,39.4,83,59,45,30.25,30.11,14,5,29,0.00
2013-10-31,68.9,60.4,47.8,49.9,46.4,40.5,80,61,40,30.32,30.24,6,1,11,0.00
2013-11-1,71.8,62.4,50.0,52.7,48.4,39.7,83,62,34,30.32,30.22,8,3,15,0.00
2013-11-2,71.6,64.3,55.4,60.6,57.0,49.7,89,78,57,30.24,30.12,10,3,19,0.00
2013-11-3,77.2,66.6,57.9,66.1,58.9,54.7,89,77,52,30.16,30.08,9,2,14,0.00
2013-11-4,68.7,63.0,57.4,58.4,55.3,46.4,89,77,53,30.12,29.78,16,5,30,0.05
2013-11-5,73.0,69.0,62.8,60.4,54.6,45.6,78,61,49,29.99,29.84,12,5,28,0.00
2013-11-6,79.0,69.4,57.6,61.4,55.5,51.9,86,64,42,30.20,29.99,8,2,14,0.00
2013-11-7,74.5,66.8,56.8,66.6,60.5,51.9,89,81,56,30.20,30.10,10,3,16,0.00
2013-11-8,70.3,64.5,60.3,61.4,51.1,24.4,89,64,21,30.15,30.06,13,5,23,0.01
2013-11-9,63.0,59.1,53.8,59.0,53.7,43.7,89,83,61,30.29,30.15,8,2,14,0.00
2013-11-10,67.6,62.1,53.8,49.8,46.4,43.6,75,57,43,30.28,30.13,14,4,25,0.00
2013-11-11,67.3,61.4,55.8,52.1,43.9,23.0,75,53,25,30.24,30.15,7,2,13,0.00
2013-11-12,66.4,62.0,54.9,43.1,35.6,21.6,58,38,24,30.24,30.16,14,5,29,0.00
2013-11-13,67.8,60.8,49.3,52.9,47.7,41.9,78,63,48,30.25,30.16,13,3,21,0.00
2013-11-14,61.3,58.8,54.0,57.2,53.7,49.7,89,83,75,30.31,30.23,6,1,10,0.26
2013-11-15,54.0,46.8,43.7,49.6,42.2,38.1,89,84,69,30.25,30.09,9,2,14,0.46
2013-11-16,57.0,50.7,43.9,52.8,47.0,40.9,89,87,69,30.13,29.92,10,1,18,0.87
2013-11-17,51.1,48.9,44.6,47.4,17.5,-15.7,89,34,6,30.09,29.87,4,0,6,0.35
2013-11-18,57.6,52.3,48.7,49.3,2.4,-47.9,89,42,1,29.85,29.53,11,4,17,0.12
2013-11-19,56.3,53.1,50.4,52.4,49.7,47.2,89,88,75,29.92,29.46,11,2,22,0.77
2013-11-20,50.4,45.1,41.0,47.2,41.3,37.1,89,87,74,30.06,29.90,6,2,10,0.63
2013-11-21,57.6,52.9,44.6,42.5,39.1,34.7,76,60,49,30.01,29.71,11,2,20,0.00
2013-11-22,52.5,47.8,41.9,43.1,37.8,31.1,89,69,45,29.84,29.64,0,0,0,0.27
2013-11-23,52.2,45.3,40.3,41.3,36.1,32.3,87,71,50,29.91,29.77,0,0,0,0.06
2013-11-24,55.6,48.1,38.5,45.3,39.9,34.4,89,74,52,30.09,29.89,0,0,0,0.00
2013-11-25,54.0,49.2,42.3,43.0,40.3,34.2,87,72,56,30.26,30.09,0,0,0,0.02
2013-11-26,48.2,46.8,44.4,35.5,31.7,26.3,68,56,46,30.33,30.23,0,0,1,0.00
2013-11-27,47.1,43.5,40.5,40.4,37.0,32.3,89,78,62,30.35,30.26,0,0,0,0.07
2013-11-28,50.0,43.9,38.5,42.1,38.1,34.4,89,80,67,30.46,30.35,0,0,0,0.13
2013-11-29,47.5,43.0,38.8,42.3,38.2,32.8,89,83,65,30.43,30.34,0,0,0,0.19
2013-11-30,47.1,42.6,33.3,43.5,39.0,30.1,89,87,81,30.34,29.93,0,0,1,0.25
2013-12-1,50.5,47.7,42.6,47.4,43.4,39.0,89,85,72,30.12,29.96,11,2,24,0.08
2013-12-2,52.0,49.6,46.4,43.4,40.3,38.0,78,70,63,30.25,30.10,9,1,18,0.00
2013-12-3,60.3,55.7,48.2,54.7,51.6,44.1,89,86,74,30.39,30.24,10,4,19,0.01
2013-12-4,62.1,53.3,42.6,50.1,42.2,37.7,89,68,44,30.44,30.37,0,0,2,0.00
2013-12-5,65.7,52.2,38.3,44.4,39.2,33.8,85,64,31,30.42,30.33,5,1,8,0.00
2013-12-6,60.1,50.0,37.4,48.3,41.2,33.6,89,73,55,30.40,30.32,9,1,14,0.00
2013-12-7,62.6,50.2,36.7,45.7,40.5,32.6,89,71,46,30.40,30.31,6,1,9,0.01
2013-12-8,60.6,48.9,37.0,49.7,41.4,32.7,89,76,56,30.53,30.39,3,0,6,0.00
2013-12-9,58.5,47.1,39.2,49.9,40.9,36.0,89,80,60,30.57,30.50,2,0,6,0.00
2013-12-10,59.0,49.2,36.9,49.7,42.2,33.6,89,78,59,30.66,30.56,3,0,6,0.01
2013-12-11,58.6,49.3,39.0,51.5,45.0,35.4,89,85,75,30.67,30.58,0,0,1,0.00
2013-12-12,63.0,50.7,38.3,53.2,43.4,35.0,89,77,57,30.60,30.45,4,0,6,0.00
2013-12-13,60.6,49.9,35.8,52.4,42.1,32.7,89,76,51,30.47,30.34,6,1,9,0.01
2013-12-14,58.1,48.8,37.9,51.2,42.8,34.8,89,81,61,30.63,30.45,8,0,13,0.00
2013-12-15,62.2,52.6,40.5,50.2,42.5,36.5,89,70,45,30.63,30.55,4,0,9,0.01
2013-12-16,60.6,49.9,37.6,52.2,43.3,33.6,89,79,60,30.61,30.53,0,0,0,0.00
2013-12-17,58.6,52.0,45.0,52.5,47.6,41.3,89,85,73,30.54,30.42,0,0,0,0.00
2013-12-18,55.0,50.5,40.8,49.0,45.6,37.8,89,83,79,30.43,30.34,0,0,1,0.67
2013-12-19,58.1,54.8,49.1,54.7,51.0,35.1,89,87,50,30.33,29.93,0,0,1,0.27
2013-12-20,52.9,49.4,48.7,47.1,40.3,-9.0,89,75,8,30.51,29.90,17,6,36,1.03
2013-12-21,58.8,52.4,48.2,54.6,19.4,-45.4,89,48,1,30.59,30.50,4,0,11,0.05
2013-12-22,62.1,53.1,46.4,56.2,45.0,31.8,89,75,41,30.58,30.47,0,0,0,0.00
2013-12-23,58.1,51.0,41.4,53.1,43.8,24.3,89,78,28,30.50,30.31,0,0,1,0.01
2013-12-24,59.2,56.0,50.2,52.8,51.3,47.1,89,84,75,30.31,29.40,8,0,17,0.01
2013-12-25,57.7,55.5,50.5,54.5,51.3,40.6,89,86,65,29.41,28.94,0,0,7,0.53
2013-12-26,54.1,51.2,49.1,41.4,32.7,28.9,68,49,42,29.91,29.40,3,0,17,0.00
2013-12-27,62.1,55.4,48.2,52.0,46.8,31.8,89,73,46,29.95,29.86,0,0,2,0.00
2013-12-28,61.5,56.1,48.0,54.7,49.8,38.7,89,80,67,30.03,29.80,13,2,23,0.00
2013-12-29,54.5,47.7,38.3,44.6,38.3,32.5,89,71,50,30.34,30.04,4,0,9,0.00
2013-12-30,55.9,46.2,34.5,41.8,36.5,29.9,87,70,47,30.36,30.24,7,1,11,0.00
2013-12-31,57.0,49.5,39.7,47.3,41.9,36.9,94,76,57,30.33,30.13,7,3,15,0.00
2014-1-1,60.6,52.4,43.9,50.9,46.7,41.2,95,82,53,30.16,30.08,7,2,14,0.00
2014-1-2,61.5,56.0,53.1,54.9,52.0,49.2,93,87,65,30.08,29.99,8,5,17,0.00